This is the latest recevied weather packets stored in our database for station/object N2WH. If no packets are shown the sender has not sent any weather packets the latest 10 day(s).
| Time | Temp. | Humidity | Pressure | Rain* | Wind** | Luminosity | Snow |
|---|---|---|---|---|---|---|---|
| 1778016756 | 26.11° C | 32% | 1008.9 hPa | 0 mm | - | 85 W/m² | - |
| 1778016452 | 26.11° C | 33% | 1008.7 hPa | 0 mm | - | 98 W/m² | - |
| 1778016150 | 26.11° C | 33% | 1008.6 hPa | 0 mm | - | 85 W/m² | - |
| 1778015847 | 26.11° C | 32% | 1008.5 hPa | 0 mm | - | 83 W/m² | - |
| 1778015544 | 26.67° C | 31% | 1008.4 hPa | 0 mm | - | 105 W/m² | - |
| 1778015240 | 26.11° C | 34% | 1008.4 hPa | 0 mm | - | 66 W/m² | - |
| 1778014937 | 26.67° C | 34% | 1008.4 hPa | 0 mm | - | 65 W/m² | - |
| 1778014635 | 26.67° C | 33% | 1008.2 hPa | 0 mm | - | 69 W/m² | - |
| 1778014333 | 26.67° C | 34% | 1008.5 hPa | 0 mm | - | 121 W/m² | - |
| 1778014029 | 27.22° C | 34% | 1008.2 hPa | 0 mm | - | 88 W/m² | - |
| 1778013727 | 27.22° C | 32% | 1008.5 hPa | 0 mm | - | 360 W/m² | - |
| 1778013424 | 27.22° C | 34% | 1008.7 hPa | 0 mm | - | 362 W/m² | - |
| 1778013121 | 27.78° C | 34% | 1008.6 hPa | 0 mm | - | 377 W/m² | - |
| 1778012816 | 27.78° C | 33% | 1008.7 hPa | 0 mm | - | 163 W/m² | - |
| 1778012513 | 27.78° C | 35% | 1008.9 hPa | 0 mm | - | 447 W/m² | - |
| 1778012209 | 27.78° C | 35% | 1008.6 hPa | 0 mm | - | 373 W/m² | - |
| 1778011907 | 27.78° C | 35% | 1008.6 hPa | 0 mm | - | 462 W/m² | - |
| 1778011605 | 27.78° C | 33% | 1008.7 hPa | 0 mm | - | 500 W/m² | - |
| 1778011302 | 27.78° C | 33% | 1008.6 hPa | 0 mm | - | 514 W/m² | - |
| 1778010998 | 28.33° C | 35% | 1008.7 hPa | 0 mm | - | 418 W/m² | - |
| 1778010695 | 27.78° C | 34% | 1008.6 hPa | 0 mm | - | 529 W/m² | - |
| 1778010392 | 27.78° C | 33% | 1008.7 hPa | 0 mm | - | 476 W/m² | - |
| 1778010088 | 27.78° C | 34% | 1009 hPa | 0 mm | - | 560 W/m² | - |
| 1778009785 | 27.78° C | 35% | 1009 hPa | 0 mm | - | 542 W/m² | - |
| 1778009482 | 27.78° C | 34% | 1009 hPa | 0 mm | - | 557 W/m² | - |
* Rain latest hour (hover to see other rain measurements)
** Current wind speed in m/s (hover to see current wind gust speed)